Content
SEND FEEDBACK

Australia Flag

COROWA, NEW SOUTH WALES


Home > Oceania > Australia > New South Wales
Elevation: 143 meters     Latitude: 35 59S     Longitude: 146 21E

WEATHER
 
SELECT A DAY
Number of Records: 151,262;   Date Range: 2/21/03 - 3/22/16
 
SHARE

PRINT THIS DATA

[ ← Previous Day ]
WEATHER ALMANAC - 14 FEBRUARY, 2013
[ Next Day → ]
[ °F ]   °C
Weather ElementAverageHighLow
Temperature24.2 °C32 °C (4:00 pm)16.7 °C (6:00 am)
Dewpoint10.3 °C13 °C (10:00 pm)8 °C (2:00 pm)
Humidity42.4 %68 % (5:00 am)14 % (3:00 pm)
Barometer1017.9 hPa1020 hPa (7:00 am)1015.2 hPa (5:00 pm)
Wind Speed10.3 km/h22.2 km/h (12:00 pm)
Weather ElementAverage
Wind DirectionSSE (151 °)

Weather ElementTotal
Precipitation---
Cooling Degree Days6 (Base 18.3)
Growing Degree Days14.3 (Base 10)
Averaged from 31 records on 14 February, 2013
WEATHER CONDITIONS BREAKOUT
WIND DIRECTION BREAKOUT
WEATHER BY HOUR - 14 FEBRUARY, 2013
[ °F ]   °C
Local TimeTemperatureDewpointHumidityBarometerVisibilityWind DirectionWind SpeedGust SpeedPrecipitationEventsConditions
12:00 AM21 °C11 °C53 %1017.3 hPaSSE (160°)3.7 km/h
1:00 AM19 °C10 °C56 %1017.9 hPaCalm
2:00 AM18 °C10 °C59 %1017.9 hPaCalm
3:00 AM17.8 °C10.6 °C52 %1017.6 hPaCalm
3:00 AM18 °C10 °C59 %1017.9 hPaCalm
4:00 AM19 °C12 °C64 %1017.9 hPaNNE (20°)5.6 km/h
5:00 AM17 °C11 °C68 %1017.9 hPaCalm
6:00 AM17 °C11 °C68 %1019 hPaSouth (180°)9.3 km/h
6:00 AM16.7 °C11.1 °C61 %1019 hPaSouth (180°)9.3 km/h
7:00 AM18 °C12 °C68 %1020 hPaSouth (180°)3.7 km/h
8:00 AM21 °C12 °C56 %1020 hPaESE (110°)5.6 km/h
9:00 AM23.3 °C10.6 °C34 %1020 hPaNorth (10°)13 km/h
9:00 AM24 °C11 °C44 %1020 hPaNorth (10°)13 km/h
10:00 AM25 °C9 °C36 %1020 hPaNorth (360°)18.5 km/h
11:00 AM26 °C9 °C34 %1020 hPaNorth (360°)18.5 km/h
12:00 PM28 °C9 °C30 %1020 hPaNNW (340°)22.2 km/h
12:00 PM27.8 °C8.3 °C20 %1019.6 hPaNNW (340°)22.2 km/h
1:00 PM29 °C9 °C29 %1019 hPaNorth (10°)13 km/h
2:00 PM30 °C8 °C25 %1017.9 hPaWNW (290°)9.3 km/h
3:00 PM31.7 °C8.3 °C14 %1016.9 hPaWest (280°)11.1 km/h
3:00 PM31 °C8 °C24 %1017.3 hPaWest (280°)11.1 km/h
4:00 PM32 °C8 °C22 %1016.3 hPaNorth (10°)7.4 km/h
5:00 PM32 °C8 °C22 %1015.2 hPaNE (50°)11.1 km/h
6:00 PM30 °C10 °C29 %1015.2 hPaSouth (170°)20.4 km/h
6:00 PM29.4 °C9.4 °C19 %1015.6 hPaSouth (180°)20.4 km/h
7:00 PM27 °C11 °C37 %1016.3 hPaSE (130°)18.5 km/h
8:00 PM25 °C12 °C44 %1017.3 hPaSE (140°)9.3 km/h
9:00 PM23.9 °C12.2 °C37 %1017.3 hPaSouth (180°)9.3 km/h
9:00 PM24 °C12 °C47 %1017.3 hPaSouth (180°)9.3 km/h
10:00 PM24 °C13 °C50 %1017.9 hPaSE (130°)11.1 km/h
11:00 PM23 °C13 °C53 %1019 hPaWSW (250°)14.8 km/h
Hourly data recorded from YWGT, located 0 kilometers away from Corowa, New South Wales




STORIES FROM OUR PARTNERS